Regional Weather Roundup
Issued by NWS Green Bay, WI

Home | Current Version | Previous Version | Graphics & Text | Print | Product List | Glossary Off
Versions: 1 2 3 4 5 6 7 8 9 10 11 12 13 14 15 16 17 18 19 20 21 22 23 24 25 26 27 28 29 30 31 32 33 34 35 36 37 38 39 40 41 42 43 44 45 46 47 48 49 50

348
ASUS43 KGRB 191600
RWRGRB

NORTH-CENTRAL AND NORTHEAST WISCONSIN REGIONAL WEATHER ROUNDUP
NATIONAL WEATHER SERVICE GREEN BAY WI
1000 AM CST THU JAN 19 2017

WIZ005-009-010>012-018-019-191700-
NORTH CENTRAL WISCONSIN

CITY           SKY/WX    TMP DP  RH WIND       PRES   REMARKS
IRONWOOD       CLOUDY    36  33  89 S9        29.82S
MANITOWISH WTR NOT AVBL
ARBOR VITAE    NOT AVBL
EAGLE RIVER    NOT AVBL
LAND O LAKES   NOT AVBL
RHINELANDER    FOG       32  32 100 SW9       29.87F VSB 1/4
PHILLIPS       CLOUDY    32  32 100 S6        29.85F FOG
ANTIGO         NOT AVBL
TOMAHAWK       NOT AVBL
MERRILL        FOG       32  32 100 CALM        N/A  VSB 3/4
$$

WIZ013-073-191700-
NORTHEAST WISCONSIN

CITY           SKY/WX    TMP DP  RH WIND       PRES   REMARKS
IRON MOUNTAIN  CLOUDY    33  30  88 SW7       29.88S FOG
MARINETTE      NOT AVBL
$$

WIZ017-030-035>037-045-191700-
CENTRAL WISCONSIN

CITY           SKY/WX    TMP DP  RH WIND       PRES   REMARKS
MEDFORD        NOT AVBL
WAUSAU         FOG       32  32 100 CALM      29.88F VSB<1/4
MOSINEE        FOG       30  30 100 CALM      29.90F VSB 1/8
MARSHFIELD     FOG       31  30  96 SE7       29.89R VSB<1/4
WISC RAPIDS    CLOUDY    32  32 100 MISG      29.93R
STEVENS POINT  NOT AVBL
WAUPACA        NOT AVBL
SHAWANO        NOT AVBL
CLINTONVILLE   FOG       32  32 100 CALM      29.94S VSB 1/2
WAUTOMA        FOG       34  33  96 SE3       29.94S VSB 1/2
$$

WIZ038-039-048-051-191700-
FOX VALLEY

CITY           SKY/WX    TMP DP  RH WIND       PRES   REMARKS
NWS GREEN BAY  FOG       34  34 100 CALM      29.95F VSB 3/4
APPLETON       FOG       32  32 100 S5        29.93R VSB 1/8
OSHKOSH        FOG       32  31  96 S10       29.95R VSB 1/4
FOND DU LAC    FOG       32  30  92 S9        29.96R VSB 1/2
$$

WIZ022-050-052-191700-
EAST CENTRAL WISCONSIN

CITY           SKY/WX    TMP DP  RH WIND       PRES   REMARKS
EPHRAIM        NOT AVBL
WASHINGTON ISL NOT AVBL
STURGEON BAY   FOG       33  32  96 S8        29.97S VSB 1/2
MANITOWOC      CLOUDY    34  32  93 S9        29.99R FOG
SHEBOYGAN      CLOUDY    33  32  96 S6        29.98S FOG
$$

LMZ563-521-522-541>543-191700-
LAKESHORE

STATION/POSITION TIME  TEMP    WIND        PRES    VSBY  WAVE
                       AIR SEA DIR/SP/G                  HT/PER
                 (UTC) (F)     (DEG/KT/KT) (MB)    (MI)  (FT/S)
SHEBOYGAN LKSHOR 1500   33     150/  8/  9 1015.9R
KEWAUNEE LKSHORE 1530   33     190/  1/  3 1014.5F
NORTHPORT PIER   1540   32     200/  3/  8 1014.6R
SISTER BAY LKSHO 1520   32     220/ 11/ 13   N/A
MENOMINEE LKSHOR 1524          220/  6/ 11 1013.3
$$




USA.gov is the U.S. government's official web portal to all federal, state and local government web resources and services.